Weather History for Robstown, TX

Change the Weather History Date:

Monday, December 3, 2012

  Actual Average (KCRP) Record (KCRP)
Temperature  
Mean Temperature 74 °F 61 °F  
Max Temperature 86 °F 71 °F 88 °F (1978)
Min Temperature 63 °F 51 °F 33 °F (1929)
Degree Days  
Heating Degree Days 0 6  
Month to date heating degree days 18  
Since 1 July heating degree days 119  
Cooling Degree Days 10 2  
Month to date cooling degree days 6  
Year to date cooling degree days 3481  
Growing Degree Days 24 (Base 50)    
Moisture  
Dew Point 64 °F    
Average Humidity 76    
Maximum Humidity 97    
Minimum Humidity 40    
Precipitation  
Precipitation 0.00 in 0.05 in 2.32 in (1943)
Month to date precipitation 0.15  
Year to date precipitation 30.08  
Snow  
Snow 0.00 in - - ()
Month to date snowfall  
Since 1 July snowfall  
Snow Depth -    
Sea Level Pressure  
Sea Level Pressure 30.02 in    
Wind  
Wind Speed 9 mph (SE)    
Max Wind Speed 20 mph    
Max Gust Speed 24 mph    
Visibility 7 miles    
Events Fog    
T = Trace of Precipitation, MM = Missing Value Source: NWS Daily Summary

Daily Weather History Graph

Daily Weather History Graph

Search for Another Location

Airport:

Trip Planner

Search our weather history database for the weather conditions in past years. The results will help you decide how hot, cold, wet, or windy it might be!

Date:

Astronomy

Dec. 03, 2012 Rise Set
Actual Time 7:06 AM CST 5:35 PM CST
Civil Twilight 6:40 AM CST 6:00 PM CST
Nautical Twilight 6:11 AM CST 6:29 PM CST
Astronomical Twilight 5:43 AM CST 6:58 PM CST
Moon 10:09 PM CST (12/3) 10:42 AM CST (12/3)
Length of Visible Light 11h 19m
Length of Day
10h 29m
Waning Gibbous, 78% of the Moon is Illuminated
Dec 3
Waning Gibbous
Dec 6
Last Quarter
Dec 13
New
Dec 19
First Quarter
Dec 28
Full

Hourly Weather History & Observations

Time (CST) Temp. Heat Index Dew Point Humidity Pressure Visibility Wind Dir Wind Speed Gust Speed Precip Events Conditions
12:15 AM 65.3 °F - 63.7 °F 94% 30.06 in 7.0 mi SE 5.8 mph - N/A   Clear
12:35 AM 65.3 °F - 63.9 °F 95% 30.05 in 5.0 mi SE 6.9 mph - N/A   Clear
12:55 AM 65.5 °F - 64.0 °F 95% 30.05 in 5.0 mi SE 4.6 mph - N/A   Mostly Cloudy
1:15 AM 65.5 °F - 64.2 °F 96% 30.05 in 1.0 mi SE 5.8 mph - N/A   Overcast
1:35 AM 64.9 °F - 63.7 °F 96% 30.05 in 0.2 mi SE 5.8 mph - N/A Fog Fog
1:55 AM 64.4 °F - 63.1 °F 96% 30.05 in 0.5 mi SE 5.8 mph - N/A Fog Fog
2:15 AM 64.6 °F - 63.3 °F 96% 30.05 in 0.2 mi ESE 5.8 mph - N/A Fog Fog
2:35 AM 64.4 °F - 63.1 °F 96% 30.04 in 0.5 mi SE 5.8 mph - N/A Fog Fog
2:55 AM 64.0 °F - 63.0 °F 96% 30.04 in 0.2 mi Calm Calm - N/A Fog Fog
3:15 AM 63.5 °F - 62.4 °F 96% 30.04 in 0.2 mi SE 3.5 mph - N/A Fog Fog
3:35 AM 64.6 °F - 63.5 °F 96% 30.04 in 0.2 mi SE 4.6 mph - N/A Fog Fog
3:55 AM 64.0 °F - 63.0 °F 96% 30.04 in 0.2 mi Calm Calm - N/A Fog Fog
4:15 AM 63.9 °F - 62.8 °F 96% 30.03 in 0.2 mi SE 4.6 mph - N/A Fog Fog
4:35 AM 64.4 °F - 63.3 °F 96% 30.03 in 0.2 mi SE 4.6 mph - N/A Fog Fog
4:55 AM 64.4 °F - 63.1 °F 96% 30.02 in 0.5 mi SE 5.8 mph - N/A Fog Fog
5:15 AM 63.7 °F - 62.6 °F 96% 30.03 in 0.5 mi ESE 3.5 mph - N/A Fog Fog
5:35 AM 63.7 °F - 62.6 °F 96% 30.03 in 0.2 mi ESE 4.6 mph - N/A Fog Fog
5:55 AM 63.5 °F - 62.6 °F 97% 30.03 in 0.2 mi ESE 5.8 mph - N/A Fog Fog
6:15 AM 63.5 °F - 62.2 °F 96% 30.04 in 0.5 mi SE 6.9 mph - N/A Fog Fog
6:35 AM 63.9 °F - 62.8 °F 96% 30.04 in 0.5 mi SE 6.9 mph - N/A Fog Fog
7:15 AM 64.0 °F - 63.0 °F 96% 30.05 in 0.2 mi ESE 4.6 mph - N/A Fog Fog
7:55 AM 64.9 °F - 63.9 °F 96% 30.06 in 0.2 mi ESE 5.8 mph - N/A Fog Fog
8:15 AM 66.9 °F - 65.8 °F 96% 30.06 in 1.2 mi ESE 5.8 mph - N/A   Overcast
8:35 AM 69.3 °F - 68.2 °F 96% 30.06 in 10.0 mi SE 6.9 mph - N/A   Scattered Clouds
8:55 AM 70.7 °F - 69.6 °F 96% 30.06 in 10.0 mi SE 8.1 mph - N/A   Clear
9:15 AM 72.7 °F - 70.5 °F 93% 30.07 in 10.0 mi SSE 12.7 mph - N/A   Clear
9:35 AM 76.1 °F - 68.9 °F 78% 30.07 in 10.0 mi SSE 11.5 mph - N/A   Clear
9:55 AM 77.9 °F - 67.5 °F 70% 30.07 in 10.0 mi SSE 18.4 mph - N/A   Scattered Clouds
10:15 AM 79.0 °F - 66.9 °F 66% 30.06 in 10.0 mi SSE 19.6 mph - N/A   Scattered Clouds
10:35 AM 81.1 °F 83.2 °F 65.8 °F 60% 30.06 in 10.0 mi SSE 18.4 mph 23.0 mph N/A   Scattered Clouds
10:55 AM 81.1 °F 82.8 °F 64.4 °F 57% 30.06 in 10.0 mi South 17.3 mph - N/A   Scattered Clouds
11:15 AM 81.7 °F 83.3 °F 64.4 °F 56% 30.05 in 10.0 mi SSE 17.3 mph - N/A   Clear
11:35 AM 83.1 °F 84.4 °F 63.7 °F 52% 30.04 in 10.0 mi South 16.1 mph 20.7 mph N/A   Clear
11:55 AM 83.7 °F 84.7 °F 63.1 °F 50% 30.02 in 10.0 mi South 19.6 mph 24.2 mph N/A   Clear
12:15 PM 84.6 °F 85.0 °F 61.9 °F 46% 30.02 in 10.0 mi South 15.0 mph 23.0 mph N/A   Clear
12:55 PM 85.6 °F 85.4 °F 60.1 °F 42% 29.99 in 10.0 mi SSE 18.4 mph 23.0 mph N/A   Clear
1:15 PM 86.5 °F 86.1 °F 59.4 °F 40% 29.98 in 10.0 mi South 16.1 mph 23.0 mph N/A   Clear
1:35 PM 86.2 °F 85.9 °F 60.3 °F 41% 29.97 in 10.0 mi SSE 13.8 mph 21.9 mph N/A   Clear
1:55 PM 86.0 °F 86.3 °F 61.9 °F 44% 29.97 in 10.0 mi SSE 18.4 mph 24.2 mph N/A   Clear
2:15 PM 86.0 °F 86.6 °F 62.2 °F 45% 29.96 in 10.0 mi South 12.7 mph 20.7 mph N/A   Clear
2:35 PM 86.2 °F 87.1 °F 63.0 °F 46% 29.96 in 10.0 mi SSE 15.0 mph - N/A   Scattered Clouds
2:55 PM 85.3 °F 86.1 °F 63.1 °F 47% 29.95 in 10.0 mi SSE 13.8 mph 19.6 mph N/A   Scattered Clouds
3:15 PM 85.3 °F 86.4 °F 63.7 °F 48% 29.96 in 10.0 mi SSE 17.3 mph - N/A   Scattered Clouds
3:35 PM 84.6 °F 85.9 °F 64.0 °F 50% 29.95 in 10.0 mi SE 18.4 mph 24.2 mph N/A   Clear
3:55 PM 83.7 °F 85.1 °F 64.2 °F 52% 29.95 in 10.0 mi SE 17.3 mph 23.0 mph N/A   Clear
4:15 PM 82.6 °F 83.8 °F 63.5 °F 52% 29.95 in 10.0 mi SE 19.6 mph - N/A   Clear
4:35 PM 82.0 °F 83.0 °F 62.2 °F 51% 29.95 in 10.0 mi SE 18.4 mph - N/A   Clear
4:55 PM 80.8 °F 81.9 °F 62.1 °F 53% 29.96 in 10.0 mi SE 19.6 mph - N/A   Clear
5:15 PM 79.2 °F - 63.5 °F 59% 29.96 in 10.0 mi SE 17.3 mph - N/A   Clear
5:35 PM 77.9 °F - 64.0 °F 62% 29.97 in 10.0 mi SE 16.1 mph 19.6 mph N/A   Clear
5:55 PM 77.0 °F - 64.6 °F 65% 29.97 in 10.0 mi SE 17.3 mph 20.7 mph N/A   Clear
6:15 PM 76.1 °F - 64.6 °F 67% 29.98 in 10.0 mi SE 13.8 mph 19.6 mph N/A   Clear
6:35 PM 75.4 °F - 64.6 °F 69% 29.99 in 10.0 mi SE 12.7 mph - N/A   Clear
6:55 PM 74.7 °F - 65.3 °F 73% 29.99 in 10.0 mi SE 11.5 mph - N/A   Clear
7:15 PM 74.3 °F - 65.3 °F 73% 29.99 in 10.0 mi SE 11.5 mph - N/A   Clear
7:35 PM 73.8 °F - 65.5 °F 75% 30.00 in 10.0 mi SE 11.5 mph - N/A   Clear
7:55 PM 73.6 °F - 65.7 °F 76% 30.01 in 10.0 mi SE 11.5 mph - N/A   Clear
8:15 PM 73.4 °F - 65.7 °F 77% 30.01 in 10.0 mi SE 12.7 mph - N/A   Clear
8:35 PM 73.4 °F - 65.8 °F 77% 30.02 in 10.0 mi SE 11.5 mph - N/A   Clear
8:55 PM 72.9 °F - 66.2 °F 80% 30.02 in 10.0 mi SSE 11.5 mph - N/A   Clear
9:15 PM 72.7 °F - 66.4 °F 81% 30.02 in 10.0 mi SSE 11.5 mph - N/A   Clear
9:35 PM 72.1 °F - 66.2 °F 82% 30.03 in 10.0 mi SE 9.2 mph - N/A   Clear
9:55 PM 71.6 °F - 66.2 °F 83% 30.02 in 10.0 mi SE 10.4 mph - N/A   Clear
10:15 PM 70.7 °F - 65.7 °F 84% 30.02 in 10.0 mi SE 8.1 mph - N/A   Clear
10:35 PM 69.8 °F - 65.5 °F 86% 30.02 in 10.0 mi SE 8.1 mph - N/A   Clear
10:55 PM 69.4 °F - 65.8 °F 88% 30.02 in 10.0 mi SE 10.4 mph - N/A   Clear
11:15 PM 69.8 °F - 66.4 °F 89% 30.02 in 10.0 mi SE 9.2 mph - N/A   Clear
11:35 PM 69.8 °F - 66.7 °F 90% 30.01 in 10.0 mi SE 9.2 mph - N/A   Clear